Tracking 32964 objects as of 21-Jan-2026
HD Live streaming from Space Station
objects crossing your sky now

COSMOS 457

Track COSMOS 457 now!
10-day predictions
COSMOS 457 is classified as:


NORAD ID: 5614
Int'l Code: 1971-099A
Perigee: 1,189.3 km
Apogee: 1,224.2 km
Inclination: 74.0 °
Period: 109.4 minutes
Semi major axis: 7577 km
RCS: 3.3674 m2 (large)
Launch date: November 20, 1971
Source: Commonwealth of Independent States (former USSR) (CIS)
Launch site: PLESETSK MISSILE AND SPACE COMPLEX (PKMTR)
Your satellite tracking list
Your tracking list is empty




NASA's NSSDC Master Catalog

Two Line Element Set (TLE):
1 05614U 71099A   26020.31909498  .00000035  00000-0  14154-3 0  9991
2 05614  74.0327 231.6113 0023052 166.1706   7.4963 13.16110802602108
Source of the keplerian elements: AFSPC